Tracking 19908 objects as of 18-Oct-2019
HD Live streaming from Space Station
objects crossing your sky now

SCOUT A DEB

Track SCOUT A DEB now!
10-day predictions


NORAD ID: 5036
Int'l Code: 1970-067C
Perigee: 811.5 km
Apogee: 849.2 km
Inclination: 89.9 °
Period: 101.4 minutes
Semi major axis: 7201 km
RCS: 0.0454 m2 (small)
Launch date: August 27, 1970
Source: United States (US)
Launch site: AIR FORCE WESTERN TEST RANGE (AFWTR)

Note: This is SATELLITE DEBRIS
aabbcc
Your satellite tracking list
Your tracking list is empty




NASA's NSSDC Master Catalog

Two Line Element Set (TLE):
1  5036U 70067C   19288.95933467  .00000409  00000-0  18385-3 0  9999
2  5036  89.8662 277.5372 0026195  16.6282 343.5762 14.20642174509999
Source of the keplerian elements: AFSPC